This is the latest recevied weather packets stored in our database for station/object W4MSI. If no packets are shown the sender has not sent any weather packets the latest 1 day(s).
| Time | Temp. | Humidity | Pressure | Rain* | Wind** | Luminosity | Snow |
|---|---|---|---|---|---|---|---|
| 1778053855 | 10.56° C | 98% | 1007.7 hPa | 0 mm | - | 0 W/m² | - |
| 1778053553 | 10.56° C | 98% | 1007.5 hPa | 0 mm | - | 0 W/m² | - |
| 1778052644 | 10.56° C | 98% | 1008.1 hPa | 1.78 mm | - | 0 W/m² | - |
| 1778052039 | 10.56° C | 97% | 1007.4 hPa | 4.83 mm | - | 0 W/m² | - |
| 1778051737 | 10.56° C | 97% | 1007.6 hPa | 3.56 mm | - | 0 W/m² | - |
| 1778051434 | 10.56° C | 97% | 1007.6 hPa | 1.27 mm | - | 0 W/m² | - |
| 1778051131 | 10.56° C | 97% | 1007.4 hPa | 1.78 mm | - | 0 W/m² | - |
| 1778050828 | 10.56° C | 97% | 1007.7 hPa | 4.83 mm | - | 0 W/m² | - |
| 1778050526 | 11.11° C | 97% | 1007.4 hPa | 6.1 mm | - | 0 W/m² | - |
| 1778049313 | 11.11° C | 96% | 1007.5 hPa | 0 mm | - | 0 W/m² | - |
| 1778048101 | 11.67° C | 96% | 1007.2 hPa | 0 mm | - | 0 W/m² | - |
| 1778047799 | 11.67° C | 96% | 1007.4 hPa | 0 mm | - | 0 W/m² | - |
| 1778047497 | 12.22° C | 96% | 1007.2 hPa | 1.27 mm | - | 0 W/m² | - |
| 1778046891 | 12.78° C | 95% | 1006.7 hPa | 3.05 mm | - | 0 W/m² | - |
| 1778045980 | 13.89° C | 95% | 1007 hPa | 0 mm | - | 0 W/m² | - |
| 1778045075 | 15.56° C | 94% | 1006.9 hPa | 0 mm | - | 0 W/m² | - |
| 1778044772 | 16.11° C | 94% | 1006.6 hPa | 0 mm | - | 0 W/m² | - |
| 1778044469 | 16.67° C | 94% | 1006.5 hPa | 13.72 mm | - | 0 W/m² | - |
| 1778044166 | 16.67° C | 94% | 1006.7 hPa | 27.69 mm | - | 0 W/m² | - |
| 1778043560 | 18.33° C | 89% | 1006.5 hPa | 0 mm | - | 0 W/m² | - |
| 1778043257 | 17.78° C | 90% | 1005.4 hPa | 0 mm | - | 0 W/m² | - |
| 1778042954 | 17.78° C | 91% | 1005.4 hPa | 0 mm | - | 0 W/m² | - |
| 1778042652 | 17.78° C | 92% | 1005.2 hPa | 0 mm | - | 0 W/m² | - |
| 1778042349 | 17.78° C | 92% | 1005.5 hPa | 0 mm | - | 0 W/m² | - |
| 1778042046 | 17.22° C | 93% | 1005.6 hPa | 0 mm | - | 0 W/m² | - |
* Rain latest hour (hover to see other rain measurements)
** Current wind speed in m/s (hover to see current wind gust speed)